Flag Weather past 2 weeks in Stoke-on-Trent, England, United Kingdom

Now
39 °F

Clear.


Feels Like: 37 °F
Forecast: N/A
Wind: 3 mph from Southeast

Location: Manchester Airport

Current Time: Nov 27, 2014 at 9:28:07 PM

Latest Report: Nov 27, 2014 at 8:50 PM


Visibility: 5 mi

Pressure: 29.59 "Hg

Humidity: 100%

Dew point: 39 °F

Location of Stoke-on-TrentLocation

Historic Weather in Stoke-on-Trent — Graph

°F

Stoke-on-Trent temperature yesterday

Maximum temperature yesterday: 46 °F (at 10:20 AM)
Minimum temperature yesterday: 43 °F (at 12:20 AM)
Average temperature yesterday: 44 °F

Past Weeks' High & Low Weather Summary

 TemperatureHumidityPressure
High57 °F (Nov 22, 12:50 PM)100% (Nov 14, 9:50 AM)30.33 "Hg (Nov 14, 9:50 AM)
Low32 °F (Nov 25, 6:20 AM)72% (Nov 14, 2:20 PM)29.33 "Hg (Nov 14, 5:50 AM)
Average46 °F92%29.85 "Hg
* Reported Nov 12 7:20 PM — Nov 27 7:50 PM, Stoke-on-Trent, Weather by CustomWeather, © 2014

Note: Actual official high and low records may vary slightly from our data, if they occured in-between our weather recording intervals... More about our weather records

Advertising

Stoke-on-Trent weather history for previous 24 hours

 ConditionsComfort  
Time TempWeatherWind HumidityBarometerVisibility
7:50 PM
Nov 27
41 °FClear.3 mph100%29.59 "Hg5 mi
7:20 PM41 °FFog.3 mph100%29.59 "Hg2 mi
6:50 PM43 °FFog.3 mph100%29.56 "Hg1 mi
6:20 PM45 °FPassing clouds.3 mph100%29.56 "Hg4 mi
5:50 PM46 °FPassing clouds.5 mph100%29.56 "Hg4 mi
5:20 PM46 °FPassing clouds.3 mph100%29.56 "Hg4 mi
4:50 PM46 °FPartly cloudy.2 mph100%29.56 "Hg4 mi
4:20 PM46 °FPassing clouds.3 mph100%29.56 "Hg4 mi
3:50 PM46 °FBroken clouds.2 mph100%29.56 "Hg4 mi
3:20 PM46 °FPartly sunny.3 mph100%29.56 "Hg5 mi
2:50 PM46 °FBroken clouds.2 mph100%29.56 "Hg5 mi
2:20 PM46 °FBroken clouds.3 mph100%29.56 "Hg5 mi
1:50 PM46 °FBroken clouds.3 mph100%29.56 "Hg5 mi
1:20 PM46 °FPartly sunny.3 mph100%29.56 "Hg4 mi
12:50 PM46 °FFog.3 mph100%29.56 "Hg3 mi
12:20 PM46 °FPartly sunny.5 mph100%29.59 "Hg4 mi
11:50 AM46 °FPartly sunny.5 mph100%29.59 "Hg4 mi
11:20 AM46 °FBroken clouds.5 mph100%29.59 "Hg4 mi
10:50 AM46 °FFog.No wind100%29.59 "Hg3 mi
10:20 AM45 °FFog.2 mph100%29.59 "Hg2 mi
9:50 AM45 °FFog.No wind100%29.59 "Hg2 mi
9:20 AM45 °FFog.3 mph100%29.59 "Hg2 mi
8:50 AM45 °FFog.No wind100%29.62 "Hg2 mi
8:20 AM45 °FDrizzle. Fog.No wind100%29.62 "Hg2 mi
7:50 AM43 °FDrizzle. Fog.No wind100%29.62 "Hg1 mi
7:20 AM43 °FDrizzle. Fog.2 mph100%29.62 "Hg1 mi
6:50 AM43 °FFog.2 mph100%29.62 "Hg2 mi
6:20 AM45 °FFog.2 mph100%29.62 "Hg2 mi
5:50 AM45 °FLight rain. Overcast.No wind100%29.62 "Hg3 mi
5:20 AM45 °FLight rain. Mostly cloudy.No wind100%29.65 "Hg4 mi
4:50 AM45 °FLight rain. Mostly cloudy.No wind100%29.65 "Hg4 mi
4:20 AM45 °FLight rain. Mostly cloudy.No wind100%29.65 "Hg4 mi
3:50 AM45 °FLight rain. Mostly cloudy.5 mph100%29.65 "Hg4 mi
3:20 AM45 °FLight rain. Mostly cloudy.5 mph100%29.68 "Hg4 mi
2:50 AM45 °FOvercast.3 mph100%29.68 "Hg4 mi
2:20 AM45 °FOvercast.3 mph93%29.68 "Hg4 mi
1:50 AM43 °FOvercast.2 mph100%29.71 "Hg4 mi
1:20 AM43 °FMostly cloudy.2 mph100%29.71 "Hg4 mi
12:50 AM43 °FMostly cloudy.No wind100%29.74 "Hg4 mi
12:20 AM45 °FMostly cloudy.3 mph100%29.74 "Hg4 mi
11:50 PM
Nov 26
43 °FOvercast.3 mph100%29.74 "Hg4 mi
11:20 PM45 °FFog.2 mph93%29.74 "Hg3 mi
10:50 PM45 °FFog.No wind93%29.77 "Hg2 mi
10:20 PM45 °FOvercast.No wind100%29.77 "Hg4 mi
9:50 PM45 °FPassing clouds.2 mph93%29.77 "Hg4 mi
9:20 PM43 °FPassing clouds.No wind100%29.77 "Hg4 mi
Weather by CustomWeather, © 2014

See weather overviewHow to use our weather pages